Overview Statistics Trail Chart Weather Telemetry Raw packets
 

This is the latest recevied weather packets stored in our database for station/object SM0UQT-10. If no packets are shown the sender has not sent any weather packets the latest 10 day(s).

<< 10 11 12 13 14 15 16 >>
Time Temp. Humidity Pressure Rain* Wind** Luminosity Snow
1788381522 13.33° C 57% 996.9 hPa - - - -
1788380622 13.89° C 57% 996.9 hPa - - - -
1788379722 13.89° C 57% 996.9 hPa - - - -
1788378822 13.89° C 57% 996.8 hPa - - - -
1788377922 14.44° C 56% 996.9 hPa - - - -
1788377021 14.44° C 56% 996.8 hPa - - - -
1788376121 14.44° C 56% 996.9 hPa - - - -
1788375221 14.44° C 56% 997 hPa - - - -
1788374321 15° C 55% 996.9 hPa - - - -
1788373421 15° C 55% 996.9 hPa - - - -
1788372521 15.56° C 55% 996.8 hPa - - - -
1788371621 15.56° C 55% 996.8 hPa - - - -
1788370721 16.67° C 55% 996.7 hPa - - - -
1788369821 17.22° C 54% 996.5 hPa - - - -
1788368921 17.78° C 54% 996.4 hPa - - - -
1788368021 18.33° C 54% 996.3 hPa - - - -
1788367121 19.44° C 55% 996.2 hPa - - - -
1788366221 19.44° C 59% 996.1 hPa - - - -
1788365368 19.44° C 59% 996 hPa - - - -
1788365320 19.44° C 59% 996 hPa - - - -
1788364420 20.56° C 59% 996.1 hPa - - - -
1788363520 21.11° C 55% 996.1 hPa - - - -
1788362620 20.56° C 60% 996.1 hPa - - - -
1788361730 19.44° C 60% 996.2 hPa - - - -
1788360830 19.44° C 60% 996.1 hPa - - - -

* Rain since midnight (hover to see other rain measurements)
** Current wind speed in m/s (hover to see current wind gust speed)